Location: Tucson
(32.2217°N, 110.9265°W)
Time: 04:49:59
(UTC-07:00)

Oscar 11 - Pass Details

Date: 30 November 2021
Orbit: 611 x 625 km, 97.6° (Epoch: 19 January)

Event Time Altitude Azimuth Distance (km) Brightness Sun altitude
Rises 06:33:34 0° 354° (N) 2,906 10.2 -7.2°
Reaches altitude 10° 06:36:08 10° 340° (NNW) 1,994 9.3 -6.7°
Maximum altitude 06:39:28 22° 289° (WNW) 1,357 8.2 -6.0°
Drops below altitude 10° 06:42:48 10° 238° (WSW) 1,978 9.3 -5.4°
Sets 06:45:21 0° 224° (SW) 2,877 10.3 -4.9°
